User: anonymous   Login
Location: Unspecified
(0.0000°N, 0.0000°E)
Time: 21:43:29
(UTC+00:00)
Language:

COSMOS 2438 - Orbit

View from above orbital plane
View from above orbital plane
View from above satellite
View from above satellite

Ground track
Ground track

The orbit data is extracted from the following two-line orbital elements,

1 32955U 08025C   17117.75407499 +.00000005 +00000-0 -34791-4 0  9995
2 32955 082.4993 269.6630 0021347 032.7607 327.4790 12.43298516405254
Epoch (UTC): 27 April 2017 18:05:52
Eccentricity: 0.0021347
inclination: 82.4993°
perigee height: 1476 km
apogee height: 1509 km
right ascension of ascending node: 269.6630°
argument of perigee: 32.7607°
revolutions per day: 12.43298516
mean anomaly at epoch: 327.4790°
orbit number at epoch: 40525

The dashed part of the orbit path shows where the satellite is in the earth's shadow,  

DLR